• Join FlightAware (Why Join?)
  • Login
  • US Flag 
12:22PM EDT


 

Airport Tracker/Info


-or-


 

Live Flight TrackerFlight Track Log ✈ N415JA ✈ 02-Sep-2013 ✈ MYBS / BIM - KTMB

Flight Track Log - Related Links

Times and Time Zones

All times are in EDT time to prevent confusion due to time zone crossing. See the N415JA flight status page for this flight to view local times or setup timezone preferences in your user account.

Time Position Orientation Groundspeed Altitude Reporting Facility
EDT Latitude Longitude Course Direction KTS MPH feet Rate Location/Type
11:31AM 25.7369 -79.3733 235° Southwest 269 310 4,500  Level Miami Center
11:32AM 25.7292 -79.4539 264° West 269 310 4,400 -180 Descending Miami Center
11:33AM 25.7236 -79.5344 266° West 269 310 4,200 -240 Descending Miami Center
11:34AM 25.7158 -79.6125 264° West 269 310 4,000 -120 Descending Miami Center
11:35AM 25.7103 -79.6933 266° West 269 310 4,000  Level Miami Center
11:36AM 25.4412 -79.6241 235° Southwest  Level FlightAware Approximate
11:36AM 25.7003 -79.7761 262° West 274 315 4,000  Level Miami Center
11:37AM 25.6792 -79.8839 258° West 275 316 4,300 -300 Climbing Miami Center
11:38AM 25.6739 -79.9367 264° West 274 315 3,400 -780 Descending Miami Center
11:39AM 25.6597 -80.0169 259° West 274 315 3,000 -480 Descending Miami Center
11:40AM 25.6478 -80.0858 259° West 258 297 2,500 -540 Descending Miami Center
11:41AM 25.6403 -80.1386 261° West 233 268 2,000 -300 Descending Miami Center
11:42AM 25.6350 -80.1939 264° West 200 230 2,000  Level Miami Center
11:43AM 25.6269 -80.2742 264° West 175 201 2,000  Level Miami Center
11:44AM 25.6233 -80.3342 266° West 180 207 2,000 -180 Level Miami Center
11:45AM 25.6244 -80.3825 271° West 187 215 1,700 -480 Descending Miami Center
11:46AM 25.6228 -80.4469 268° West 182 209 1,100 -660 Descending Miami Center
11:47AM 25.6392 -80.4611 322° Northwest 152 175 400 -720 Descending Miami Center
11:49AM 25.6476 -80.4332 200° South  Level Estimated
11:56AM 25.6476 -80.4332 200° South  Level Estimated